Regional Weather Roundup
Issued by NWS Jackson, KY

Home | Current Version | Previous Version | Text Only | Print | Product List | Glossary Off
Versions: 1 2 3 4 5 6 7 8 9 10 11 12 13 14 15 16 17 18 19 20 21 22 23 24 25 26 27 28 29 30 31 32 33 34 35 36 37 38 39 40 41 42 43 44 45 46 47 48 49 50

000
ASUS43 KJKL 210210
RWRJKL

EAST KENTUCKY HOURLY WEATHER ROUNDUP
NATIONAL WEATHER SERVICE JACKSON KY
1000 PM EDT MON APR 20 2015

NOTE: "FAIR" INDICATES FEW OR NO CLOUDS BELOW 12,000 FEET WITH
NO SIGNIFICANT WEATHER AND/OR OBSTRUCTIONS TO VISIBILITY.

* THESE REPORTS ARE NOT UNDER NWS QUALITY CONTROL AND MAY NOT
  REPORT WEATHER SUCH AS PRECIPITATION AND FOG.

KYZ079-080-083-085-087-088-110-112-115-119-120-210300
...EASTERN KENTUCKY...

CITY           SKY/WX    TMP DP  RH WIND       PRES   REMARKS
JACKSON        CLOUDY    51  45  79 VRB3      29.77R
LONDON         CLOUDY    53  46  77 SW6       29.81R
SOMERSET*      CLOUDY    52  46  82 SW5       29.83R
MONTICELLO*    PTCLDY    53  51  93 SW7       29.85R
MIDDLESBORO*   CLOUDY    53  48  81 NW8       29.82R
HARLAN APT*    CLOUDY    50  45  81 W7        29.81R
HAZARD APT*    CLOUDY    52  46  82 SW7       29.79R
BLACK MTN*       N/A     41  41 100 N7          N/A
PIKEVILLE APT* LGT RAIN  52  46  82 SW6       29.77R
BIG SANDY*     LGT RAIN  53  51  90 W5        29.75R
$$

KYZ035-036-041-042-044-050-067-078-099-210300
...CENTRAL KENTUCKY...

CITY           SKY/WX    TMP DP  RH WIND       PRES   REMARKS
MT STERLING*   MOCLDY    50  43  76 NW6       29.79R
FLEMING/MASON* PTCLDY    50  39  66 W9        29.77R
DANVILLE*      CLOUDY    52  39  62 W7        29.81R
RICHMOND*      MOCLDY    50  46  87 SW6       29.78R
LEXINGTON      PTCLDY    51  37  58 W12       29.78R
FRANKFORT      MOCLDY    53  36  52 W8        29.77R
$$

KYZ091>093-OHZ055-061-077-WVZ005-015-034-035-042-210300
...SOUTHERN OHIO/WEST VIRGINIA...

CITY           SKY/WX    TMP DP  RH WIND       PRES   REMARKS
COVINGTON      MOCLDY    51  37  58 W16       29.75R
COLUMBUS       PTCLDY    50  37  61 W17       29.66R
DAYTON         MOCLDY    50  37  61 W18       29.70R
WILMINGTON     CLEAR     49  36  61 W12       29.70R
HUNTINGTON     CLOUDY    54  45  71 W8G20     29.71R
CHARLESTON     LGT RAIN  56  48  74 NW15G22   29.70R
PINEVILLE*     CLOUDY    54  53  99 MISG      29.76R
BECKLEY        LGT RAIN  53  47  79 W10       29.72R
BLUEFIELD      CLOUDY    53  47  79 W10G18    29.74R
$$

VAZ002-007-008-TNZ017-027-036-066-071-210300
...SOUTHWEST VIRGINIA/EAST TENNESSEE...

CITY           SKY/WX    TMP DP  RH WIND       PRES   REMARKS
WISE*          LGT RAIN  50  45  81 W12       29.79R
JONESVILLE*    LGT RAIN  52  46  82 W3        29.83R
ABINGDON*      CLOUDY    60  46  60 NW8G22    29.75R
BRISTOL        CLOUDY    61  46  57 W12       29.74R
KNOXVILLE      MOCLDY    57  48  72 W12       29.82R
OAK RIDGE      MOCLDY    57  46  66 VRB6      29.84R
CROSSVILLE     CLEAR     50  42  74 W5        29.86R
NASHVILLE      CLEAR     55  41  59 CALM      29.86R
$$

...KEY TO REMARKS...
VSB - VISIBILITY IN MILES
WCI - WIND CHILL INDEX
HX  - HEAT INDEX

$$



USA.gov is the U.S. government's official web portal to all federal, state and local government web resources and services.